Volver al catálogo

STARLINK-2687

ActivoComunicacionesVLEO
NORAD 48466·PAYLOAD·🇺🇸 United States

Lanzado May 9, 2021 desde Cape Canaveral Space Force Station

Loading…

Próximos Pases (próximas 24 horas)

TLE

ActualizadoSource: CelesTrak SupGP

Época: Sep 14, 2026, 20:28 UTC

1 48466C 21040AQ  26257.85326389  .00048806  00000+0  15692-2 0  2578
2 48466  53.1604  30.7883 0001084  69.5223 359.4670 15.31683189    18

Sigue STARLINK-2687 en tiempo real con AllMySat

Download on the App Store